Back to catalog

STARLINK-31858

AliveCommunicationsVLEO
NORAD 59658·PAYLOAD·🇺🇸 United States

Launched May 6, 2024 from Cape Canaveral Space Force Station

Loading…

Next Passes (next 24 hours)

TLE

FreshSource: CelesTrak SupGP

Epoch: Sep 14, 2026, 22:39 UTC

1 59658C 24084E   26257.94423611  .00048115  00000+0  17425-2 0  2579
2 59658  43.0035  52.7177 0001876 273.0856 326.6959 15.27557251    13

Track STARLINK-31858 in real time with AllMySat

Download on the App Store